Location: Hope
(40.9110°N, 74.9680°W)
Time: 00:46:39
(UTC-04:00)

VELOX 1 - Pass Details

Date: 07 August 2021
Orbit: 626 x 643 km, 98.3° (Epoch: 19 September)

Event Time Altitude Azimuth Distance (km) Brightness Sun altitude
Rises 03:20:18 0° 130° (SE) 2,934 ? -24.8°
Reaches altitude 10° 03:22:56 10° 114° (ESE) 2,032 ? -24.5°
Maximum altitude 03:26:13 21° 66° (ENE) 1,449 ? -24.1°
Drops below altitude 10° 03:29:32 10° 18° (NNE) 2,047 ? -23.8°
Sets 03:32:11 0° 2° (N) 2,962 ? -23.5°
